CW1627 Weather Reports


time (UTC)temp
C
wind
direction
speed
KPH
gust
KPH
rain 1hr
cm
rain 24hr
cm
rain mn
cm
humidity
%
barometer
mb
20260510093052 20 159 0.0 0.0 0.00 0.03 0.00 86 1011.6
20260510090052 21 159 0.0 0.0 0.00 0.03 0.00 82 1011.5
20260510083050 21 171 0.0 3.2 0.00 0.03 0.00 80 1011.4
20260510080050 21 146 0.0 0.0 0.00 0.03 0.00 83 1011.4
20260510073049 22 140 0.0 1.6 0.00 0.03 0.00 80 1011.4
20260510070048 22 165 0.0 4.8 0.00 0.03 0.00 79 1011.6
20260510063047 23 158 0.0 6.4 0.00 0.03 0.00 76 1011.5
20260510060046 24 141 3.2 8.0 0.00 0.03 0.00 74 1011.6
20260510053046 24 180 1.6 8.0 0.00 0.03 0.00 74 1011.2
20260510050044 25 148 1.6 6.4 0.00 0.03 0.00 71 1011.2
20260510043044 24 182 0.0 6.4 0.00 0.03 0.03 74 1010.8
20260510040043 23 116 0.0 0.0 0.00 0.03 0.03 74 1010.5
20260510033042 25 116 0.0 0.0 0.00 0.03 0.03 67 1010.3
20260510030041 27 116 0.0 4.8 0.00 0.03 0.03 62 1010.2
20260510020039 28 158 0.0 14.5 0.00 0.03 0.03 54 1009.3
20260510013038 29 142 1.6 14.5 0.00 0.03 0.03 53 1008.9
20260510003037 32 56 4.8 8.0 0.00 0.03 0.03 49 1008.3
20260510000036 32 238 4.8 14.5 0.00 0.03 0.03 48 1007.8
20260509230104 34 172 0.0 12.9 0.00 0.03 0.03 42 1008.4
20260509213102 33 138 0.0 16.1 0.00 0.03 0.03 46 1008.4
20260509210101 33 128 6.4 17.7 0.00 0.03 0.03 46 1008.8
20260509203100 32 259 1.6 16.1 0.00 0.03 0.03 48 1009.1
20260509200059 32 291 0.0 16.1 0.00 0.03 0.03 48 1009.7
20260509193058 31 278 0.0 19.3 0.00 0.03 0.03 51 1010.3
20260509190057 31 188 11.3 16.1 0.00 0.03 0.03 54 1010.5
20260509183056 30 231 6.4 17.7 0.00 0.03 0.03 59 1010.8
20260509180056 30 237 3.2 16.1 0.00 0.03 0.03 64 1011.2
20260509170054 27 225 6.4 11.3 0.00 0.03 0.03 72 1011.5
20260509163053 26 259 0.0 11.3 0.00 0.03 0.03 82 1011.7
20260509160052 25 215 0.0 11.3 0.00 0.03 0.03 85 1011.5
20260509153051 24 146 4.8 8.0 0.03 0.03 0.03 92 1011.8
20260509150051 23 78 0.0 3.2 0.03 0.03 0.03 92 1012.1
20260509143049 23 100 0.0 4.8 0.00 0.00 0.00 91 1012.2
20260509140049 22 59 0.0 8.0 0.00 0.00 0.00 93 1011.7
20260509130047 22 167 0.0 8.0 0.00 0.00 0.00 95 1011.2
20260509123046 22 95 0.0 11.3 0.00 0.00 0.00 96 1011.2
20260509113044 22 62 1.6 6.4 0.00 0.00 0.00 96 1011.1
20260509110044 22 70 3.2 4.8 0.00 0.00 0.00 96 1010.9
20260509103042 22 30 3.2 8.0 0.00 0.00 0.00 96 1010.9
20260509100041 22 56 0.0 6.4 0.00 0.00 0.00 96 1010.8